Semi-2

operational
NORAD ID: 66298 Int'l Des: 2025-248 Owner: UNK Country: UNK
NOTLE

About Semi-2

Description loading...

Live Position

Loading 3D Globe...

Upcoming Passes

Altitude History

Altitude vs Time

uPlot chart will show altitude changes over time

Two-Line Element Set

1 66298U 25248F 25355.44482541 .00007410 00000-0 35377-3 0 9994
2 66298 45.4092 352.6948 0006969 125.5254 234.6283 15.19671124 7482
Epoch: Dec 21, 2025 • Age: 10 hours

Current Status

Altitude 507.4 km
Velocity 7.62 km/s
Sub-Earth Point 43.38°N, 20.73°E
Launch Date Nov 2, 2025
Age 0.1 years
Type other

Technical Details

Classification Payload
Mass 12.00 kg
Dry Mass 12.00 kg
Total Mass 12.00 kg
Length 0.30 m
Diameter 0.20 m
Span 0.30 m
Shape Box
Manufacturer UNK
Bus Type Cubesat 6U
Phase Status In Orbit
Owner/State UNK/UNK

Large Constellations

Loading constellations...